This demonstration page uses our WeatherBlox Daily Observations layout. Learn more.

Left ArrowRight Arrow

36.19886, -115.1175

Hourly Observations for January 19, 2021

Temp ( °F °C ) Dew Point ( °F °C ) Humidity (%) Winds ( mph kmh ) Pressure ( in mb ) Visibility ( mi km ) Precip ( " mm )
12:53 am 00:53 Clear 50 10 17 -8.3 27 27 NW 22 35 29.92 1013 10 16.0934 0 0
1:53 am 01:53 Clear 49 9.4 17 -8.3 28 28 NW 18 30 29.92 1013 10 16.0934 0 0
2:53 am 02:53 Clear 49 9.4 16 -8.9 27 27 NW 20 31 29.91 1013 10 16.0934 0 0
3:53 am 03:53 Mostly Clear 48 8.9 16 -8.9 28 28 NW 25 41 29.92 1013 10 16.0934 0.001 0.001
4:53 am 04:53 Clear 47 8.3 15 -9.4 28 28 NW 22 35 29.93 1014 10 16.0934 0.001 0.001
5:53 am 05:53 Mostly Clear 47 8.3 15 -9.4 28 28 NW 21 33 29.96 1014 10 16.0934 0 0
6:53 am 06:53 Sunny 48 8.9 15 -9.4 27 27 NW 21 33 29.98 1015 10 16.0934 0.001 0.001
7:53 am 07:53 Sunny 48 8.9 15 -9.4 27 27 NW 22 35 30.02 1017 10 16.0934 0 0
8:53 am 08:53 Sunny 51 10.6 16 -8.9 25 25 NNW 15 24 30.05 1018 10 16.0934 0 0
9:53 am 09:53 Sunny 53 11.7 17 -8.3 24 24 NNW 17 28 30.08 1019 10 16.0934 0 0
10:53 am 10:53 Sunny 56 13.3 18 -7.8 22 22 NNW 16 26 30.08 1019 10 16.0934 0 0
11:53 am 11:53 Sunny 57 13.9 19 -7.2 23 23 NNW 13 20 30.08 1019 10 16.0934 0 0
12:53 pm 12:53 Mostly Sunny 59 15 19 -7.2 21 21 NNE 13 20 30.07 1018 10 16.0934 0 0
1:53 pm 13:53 Cloudy 60 15.6 19 -7.2 20 20 N 10 17 30.06 1018 10 16.0934 0 0
2:53 pm 14:53 Cloudy 60 15.6 18 -7.8 19 19 NE 17 28 30.06 1018 10 16.0934 0 0
3:53 pm 15:53 Cloudy 60 15.6 18 -7.8 19 19 NE 18 30 30.07 1018 10 16.0934 0 0
4:53 pm 16:53 Cloudy 60 15.6 19 -7.2 20 20 NE 20 31 30.08 1019 10 16.0934 0 0
5:39 pm 17:39 Cloudy 57 13.9 25 -3.9 29 29 E 14 22 30.04 1017 10 16.0934 0 0
5:53 pm 17:53 Cloudy 57 13.9 25 -3.9 29 29 E 14 22 30.13 1020 10 16.0934 0 0
6:53 pm 18:53 Cloudy 56 13.3 30 -1.1 37 37 E 14 22 30.14 1021 10 16.0934 0 0
7:53 pm 19:53 Cloudy with Light Rain 54 12.2 33 0.6 45 45 NE 13 20 30.16 1021 10 16.0934 0.001 0.001
8:53 pm 20:53 Cloudy 54 12.2 34 1.1 47 47 NNE 5 7 30.16 1021 10 16.0934 0.001 0.001
9:53 pm 21:53 Mostly Cloudy 53 11.7 34 1.1 48 48 WNW 5 7 30.17 1022 10 16.0934 0 0
10:53 pm 22:53 Mostly Cloudy 53 11.7 35 1.7 51 51 W 3 6 30.18 1022 10 16.0934 0 0
11:53 pm 23:53 Cloudy 52 11.1 34 1.1 50 50 VRB 5 7 30.18 1022 10 16.0934 0 0

Powered by AerisWeather